Tracking 19903 objects as of 16-Oct-2019
HD Live streaming from Space Station
objects crossing your sky now

FENGYUN 1C DEB

Track FENGYUN 1C DEB now!
10-day predictions


NORAD ID: 37068
Int'l Code: 1999-025EFC
Perigee: 491.8 km
Apogee: 612.7 km
Inclination: 98.6 °
Period: 95.5 minutes
Semi major axis: 6923 km
RCS: 0.0108 m2 (small)
Launch date: May 10, 1999
Source: People's Republic of China (PRC)
Launch site: Taiyaun Space Center, China (TSC)

Note: This is SATELLITE DEBRIS
aabbcc
Your satellite tracking list
Your tracking list is empty




NASA's NSSDC Master Catalog

Two Line Element Set (TLE):
1 37068U 99025EFC 19279.83407753 +.00007333 +00000-0 +45260-3 0  9990
2 37068 098.6141 138.8769 0087337 123.9309 237.0258 15.07086100002728
Source of the keplerian elements: AFSPC